sat.trackr.live / text

‹ back to catalog

STARLINK-3910

NORAD 52586 · 2022-051BC

PAYLOAD ACTIVE UNKNOWN

§ Identity

Operator
Country
US
Launch date
2022-05-13
Launch site
AFWTR
Launch vehicle
Mass (kg)
RCS (m²)

Purposes: comms

External: N2YO · Heavens-Above · Gunter

§ Orbital elements

Epoch: 2026-05-24T17:03:02.631168Z

Period
95.44 min
Inclination
53.2141°
Eccentricity
0.0000925
Mean motion
15.08837897 rev/d
Perigee alt
539.1 km
Apogee alt
540.4 km
Semi-major
6,917.9 km
B*
2.4774e-5
RAAN
137.8502°
Arg perigee
72.3317°
Mean anomaly
287.7776°
Rev number
22,306

§ Raw data

STARLINK-39101 52586U 22051BC  26144.71044712  .00000107  00000+0  24774-4 0  99942 52586  53.2141 137.8502 0000925  72.3317 287.7776 15.08837897223062

JSON: /api/v1/satellites/52586 · /tle

For live sub-satellite position, see the globe view (requires WebGL).

§ Visibility from observer

Set your observer location to see the next 7 days of passes ≥ 10°. The values pass through the URL so the page stays shareable.

No JS? Fill the form by hand. The geolocation button needs JavaScript.